www.pogodaiklimat.ru

Погода и климат >> Архив погоды >> Мексика >> Loreto


ПОГОДА в Loreto

  • Прогноз погоды в Loreto
  • Монитор погоды в Loreto
  • Климат города

АРХИВ ПОГОДЫ в Loreto

Время (UTC), дата Ветер
(напр.,м/с)
 
Видим.   Явления Облачность Т
(С)
Тd
(С)
f
(%)
Тe
(С)
Тes
(С)
Комфортность P
(гПа)
Po
(гПа)
Тmin
(С)
Tmax
(С)
R
(мм)
R24
(мм)
S
(см)
12 15.11 штиль 0 20 км ясно +18.5 +4.5 40 +19 +19 1010.9 1010.1 +17.5 +34.6
15 15.11 штиль 0 20 км ясно +18.2 +6.8 47 +18 +19 1012.5 1011.7
00 16.11 В 2 20 км ясно +30.7 +7.8 24 +30 +30 жарко 1010.4 1009.6 +16.0 +33.8
18 16.11 Ю 1 20 км ясно +32.7 +5.7 18 +30 +41 жарко 1013.4 1012.6 +15.4 +33.3
21 16.11 СВ 3 20 км ясно +32.7 +15.6 36 +35 +42 душно 1011.6 1010.9
00 17.11 В 2 20 км ясно +30.2 +19.6 53 +36 +37 очень
душно
1011.4 1010.6 +15.4 +33.8
12 17.11 штиль 0 20 км ясно +18.6 +9.1 54 +19 +19 1013.1 1012.3 +17.2
15 17.11 штиль 0 20 км ясно +20.0 +10.4 54 +21 +22 комфорт 1014.8 1014.0
18 17.11 В 1 20 км ясно +30.9 +18.6 48 +36 +46 очень
душно
1015.4 1014.7 +16.0 +31.1
21 17.11 СВ 1 20 км ясно +32.9 +19.1 44 +38 +48 очень
душно
1012.9 1012.1
12 18.11 штиль 0 20 км ясно +18.5 +8.3 51 +19 +19 1012.9 1012.1 +17.0 +34.0
15 18.11 штиль 0 20 км ясно +19.4 +9.3 52 +20 +21 1014.1 1011.3
18 18.11 СВ 2 20 км ясно +31.7 +13.7 33 +33 +42 жарко 1014.2 1013.4 +16.8 +31.8
21 18.11 СВ 2 20 км ясно +32.7 +18.4 43 +32 +41 жарко 1012.0 1011.3
00 19.11 В 2 20 км ясно +28.8 +19.1 56 +34 +35 очень
душно
1011.3 1010.5 +16.8 +33.6
03 19.11 С 2 20 км ясно +25.2 +11.6 43 +27 +27 жарко 1012.2 1011.4
12 19.11 СЗ 4 20 км ясно +24.4 +11.6 45 +26 +26 жарко 1012.2 1011.4 +23.2 +33.6
15 19.11 СЗ 2 20 км 1/0
[Ci]
+24.5 +10.2 40 +25 +26 комфорт 1013.3 1012.6
18 19.11 С 3 20 км ясно +30.0 +8.9 27 +29 +37 жарко 1013.5 1012.7 +22.8 +30.4
21 19.11 СВ 3 20 км ясно +30.6 +14.8 38 +33 +40 душно 1010.9 1010.1
00 20.11 В 2 20 км ясно +28.2 +14.5 43 +30 +31 жарко 1010.4 1009.6 +22.8 +33.4
03 20.11 С 2 20 км ясно +23.3 +10.8 45 +25 +25 комфорт 1011.6 1010.8
12 20.11 штиль 0 20 км ясно +19.0 +13.1 69 +20 +20 1013.5 1012.7 +18.0 +33.4
15 20.11 штиль 0 20 км ясно +19.5 +13.1 66 +21 +22 комфорт 1015.1 1014.4
18 20.11 СВ 1 20 км 1/0
[Ci fib]
+26.5 +13.6 45 +29 +39 жарко 1009.4 1008.6 +16.0 +28.3
21 20.11 СВ 2 20 км ясно +29.1 +14.2 40 +31 +39 жарко 1013.7 1012.9
00 21.11 В 2 20 км ясно +25.2 +17.7 63 +29 +30 душно 1013.2 1012.4 +16.0 +29.7
03 21.11 штиль 0 20 км ясно +21.5 +17.7 79 +26 +26 душно 1013.9 1013.2
12 21.11 штиль 0 20 км ясно +17.6 +13.0 74 +18 +18 1014.7 1014.0 +16.2 +29.7
15 21.11 ЮЗ 1 20 км 4/0
[Ci]
+19.5 +11.2 59 +22 +23 комфорт 1015.3 1014.5
00 22.11 В 1 20 км ясно +30.4 +16.7 44 +34 +34 очень
душно
1011.7 1010.9 +16.0 +31.1

 

Местоположение метеостанции Loreto (Мексика): широта 26.02 долгота -111.30 высота над уровнем моря 7 м.

В архиве по умолчанию представлена погода в Loreto за последнюю неделю. Архивные данные за месяц целиком и за предыдущие месяцы, начиная с января 2011 года, Вы можете получить, выбрав интересующий диапазон дат из раскрывающегося списка и нажав кнопку "Ввод!".

Внимание! Время в таблицах - всемирное. Для получения местного времени необходимо прибавить поправку, которая в Loreto равна -6 ч.

Смотрите также архив погоды в соседних городах и на ближайших метеорологических станциях:

Погода в Ciudad Constitucion (Мексика) (126 км)
Погода в Santa Rosalia (Мексика) (169 км)
Погода в Ciudad Obregon (Мексика) (211 км)
Погода в Guaymas (Мексика) (215 км)
Погода в Empalme (Мексика) (223 км)
Погода в La Paz (Мексика) (229 км)
Погода в Choix (Мексика) (319 км)
Погода в Hermosillo la Magna (Мексика) (342 км)
Погода в Hermosillo (Мексика) (342 км)
Погода в Culiacan (Мексика) (415 км)

Пояснения к столбцам:

Ветер - указаны скорость ветра в м/с - средняя за 10 мин, порывы в срок и между сроками (в фигурных скобках) и направление, откуда дует ветер: С - северный, СВ - северо-восточный, В - восточный, ЮВ - юго-восточный, Ю - южный, ЮЗ - юго-западный, З - западный, СЗ - северо-западный.
Видимость - горизонтальная дальность видимости в метрах или километрах. При видимости от 1 до 10 км при отсутствии осадков обычно наблюдается дымка, при ухудшении видимости до 1 км и менее - туман. В сухую погоду видимость может ухудшаться дымом, пылью или мглою.
Явления - указаны атмосферные явления, наблюдавшиеся в срок или в последний час перед сроком; фигурными скобками обозначены явления, наблюдавшиеся между сроками (за 1-3 часа до срока); квадратными скобками обозначены град или гололедные отложения с указанием их диаметра в мм.
Облачность - указаны через наклонную черту общая и нижняя облачность в баллах и высота нижней границы облаков в метрах; квадратными скобками обозначены формы облаков: Ci - перистые, Cs - перисто-слоистые, Cc - перисто-кучевые, Ac - высококучевые, As - высокослоистые, Sc - слоисто-кучевые, Ns - слоисто-дождевые, Cu - кучевые, Cb - кучево-дождевые. Подробнее классификацию облаков см. в Атласе облаков (PDF).
T - Температура воздуха - температура, измеренная на высоте 2 м над землей.
Td - Температура точки росы - температура, при понижении до которой содержащийся в воздухе водяной пар достигнет насыщения.
f - Относительная влажность воздуха - влажноcть воздуха, измеренная на высоте 2 м над землей.
Te - Эффективная температура - температура, которую ощущает одетый по сезону человек в тени. Характеристика душности погоды. При расчете учитывается влияние влажности воздуха и скорости ветра на теплоощущения человека.
Tes - Эффективная температура на солнце - температура, которую ощущает человек, с поправкой на солнечный нагрев. Характеристика знойности погоды. Зависит от высоты солнца над горизонтом, облачности и скорости ветра. Ночью, в пасмурную погоду, а также при ветре 12 м/с и более поправка равна нулю.
P - Атмосферное давление - приведенное к уровню моря атмосферное давление.
Po - Атмосферное давление - измеренное на уровне метеостанции атмосферное давление.
Tmin - Минимальная температура - минимум температуры воздуха на высоте 2 м над землей.
Tmax - Максимальная температура - максимум температуры воздуха на высоте 2 м над землей.
R - Количество осадков - Количество выпавших осадков за период времени, мм. При наведении курсора мыши на число - период времени, за который выпало указанное количество осадков.
R24 - Количество осадков - Количество выпавших осадков за 24 часа, мм.
S - Снежный покров - Высота снежного покрова, см. При наведении курсора мыши на число - состояние снежного покрова и степень покрытия местности в баллах.